Location: Brno
(49.2000°N, 16.6330°E)
Time: 10:12:20
(UTC+02:00)

Cosmos 1603 - Visible Passes

Search period start: 22 September 2014 00:00
Search period end: 02 October 2014 00:00
Orbit: 830 x 862 km, 71.0° (Epoch: 21 September)

Date Brightness Start Highest point End Pass type
(mag) Time Alt. Az. Time Alt. Az. Time Alt. Az.
22 Sep 4.0 03:31:36 57° SE 03:31:54 58° ESE 03:37:32 10° NE visible
22 Sep 4.7 05:13:31 20° W 05:16:24 31° NW 05:21:30 10° NNE visible
23 Sep 4.2 03:18:26 55° E 03:18:26 55° E 03:23:43 10° NE visible
23 Sep 4.7 05:00:21 24° W 05:02:34 32° NW 05:07:41 10° NNE visible
24 Sep 4.4 03:05:13 49° ENE 03:05:13 49° ENE 03:09:53 10° NE visible
24 Sep 4.6 04:47:08 28° WNW 04:48:44 32° NW 04:53:53 10° NNE visible
25 Sep 4.7 02:51:58 42° ENE 02:51:58 42° ENE 02:56:04 10° NE visible
25 Sep 4.6 04:33:53 31° WNW 04:34:54 33° NW 04:40:05 10° NNE visible
26 Sep 5.1 02:38:41 36° ENE 02:38:41 36° ENE 02:42:14 10° NE visible
26 Sep 4.6 04:20:36 33° WNW 04:21:04 34° NW 04:26:17 10° NNE visible
26 Sep 5.8 06:05:24 10° NW 06:07:08 11° NNW 06:08:53 10° N visible
27 Sep 5.3 02:25:23 30° NE 02:25:23 30° NE 02:28:25 10° NE visible
27 Sep 4.6 04:07:17 35° NW 04:07:17 35° NW 04:12:29 10° NNE visible
27 Sep 5.8 05:51:27 10° NW 05:53:17 11° NNW 05:55:07 10° N visible
28 Sep 5.6 02:12:03 26° NE 02:12:03 26° NE 02:14:35 10° NE visible
28 Sep 4.7 03:53:57 35° NW 03:53:57 35° NW 03:58:41 10° NNE visible
28 Sep 5.8 05:37:30 10° NW 05:39:26 12° NNW 05:41:22 10° N visible
29 Sep 5.8 01:58:42 22° NE 01:58:42 22° NE 02:00:46 10° NE visible
29 Sep 4.8 03:40:36 34° NNW 03:40:36 34° NNW 03:44:53 10° NNE visible
29 Sep 5.9 05:23:33 10° NW 05:25:34 12° NNW 05:27:36 10° N visible
30 Sep 6.0 01:45:19 19° NE 01:45:19 19° NE 01:46:56 10° NE visible
30 Sep 5.0 03:27:13 32° NNW 03:27:13 32° NNW 03:31:04 10° NNE visible
30 Sep 5.9 05:09:36 10° NW 05:11:43 12° NNW 05:13:51 10° N visible
01 Oct 6.2 01:31:55 16° NE 01:31:55 16° NE 01:33:07 10° NE visible
01 Oct 5.2 03:13:49 30° N 03:13:49 30° N 03:17:16 10° NNE visible
01 Oct 5.9 04:55:43 10° NW 04:57:52 12° NNW 05:00:05 10° N visible
